This demonstration page uses our WeatherBlox Daily Observations layout. Learn more.

Left ArrowRight Arrow

36.17497, -115.13722

Hourly Observations for November 2, 2020

Temp ( °F °C ) Dew Point ( °F °C ) Humidity (%) Winds ( mph kmh ) Pressure ( in mb ) Visibility ( mi km ) Precip ( " mm )
12:53 am 00:53 Clear 64 17.8 26 -3.3 24 24 W 6 9 30.16 1021 10 16 0.00 0.00
1:53 am 01:53 Mostly Clear 63 17.2 26 -3.3 25 25 WNW 5 7 30.17 1022 10 16 0.00 0.00
2:53 am 02:53 Mostly Clear 64 17.8 27 -2.8 25 25 WSW 5 7 30.16 1021 10 16 0.00 0.00
3:53 am 03:53 Partly Cloudy 64 17.8 26 -3.3 24 24 Calm 30.17 1022 10 16 0.00 0.00
4:53 am 04:53 Partly Cloudy 63 17.2 27 -2.8 26 26 NW 5 7 30.18 1022 10 16 0.00 0.00
5:53 am 05:53 Mostly Cloudy 66 18.9 24 -4.4 20 20 NW 3 6 30.18 1022 10 16 0.00 0.00
6:53 am 06:53 Partly Cloudy 66 18.9 27 -2.8 23 23 WSW 5 7 30.19 1023 10 16 0.00 0.00
7:53 am 07:53 Mostly Sunny 68 20 29 -1.7 23 23 W 6 9 30.21 1023 10 16 0.00 0.00
8:53 am 08:53 Sunny 75 23.9 28 -2.2 18 18 Calm 30.20 1023 10 16 0.00 0.00
9:53 am 09:53 Sunny 78 25.6 23 -5 13 13 Calm 30.18 1022 10 16 0.00 0.00
10:53 am 10:53 Sunny 81 27.2 21 -6.1 11 11 SSE 5 7 30.16 1021 10 16 0.00 0.00
11:53 am 11:53 Sunny 82 27.8 22 -5.6 11 11 SSW 6 9 30.13 1020 10 16 0.00 0.00
12:53 pm 12:53 Sunny 84 28.9 22 -5.6 10 10 S 6 9 30.09 1019 10 16 0.00 0.00
1:53 pm 13:53 Sunny 86 30 26 -3.3 11 11 ESE 3 6 30.06 1018 10 16 0.00 0.00
2:53 pm 14:53 Sunny 86 30 25 -3.9 11 11 ESE 6 9 30.06 1018 10 16 0.00 0.00
3:53 pm 15:53 Sunny 86 30 25 -3.9 11 11 Calm 30.04 1017 10 16 0.00 0.00
4:53 pm 16:53 Partly Cloudy 83 28.3 27 -2.8 13 13 SW 3 6 30.04 1017 10 16 0.00 0.00
5:53 pm 17:53 Mostly Cloudy 79 26.1 30 -1.1 17 17 W 5 7 30.04 1017 10 16 0.00 0.00
6:23 pm 18:23 Mostly Cloudy with Nearby Thunderstorms 78 25.6 32 0 19 19 W 5 7 29.92 1013 10 16 0.00 0.00
6:38 pm 18:38 Mostly Cloudy 78 25.6 32 0 19 19 WNW 5 7 29.92 1013 10 16 0.00 0.00
6:53 pm 18:53 Mostly Cloudy 77 25 32 0 19 19 NW 6 9 30.05 1018 10 16 0.00 0.00
7:53 pm 19:53 Partly Cloudy 75 23.9 33 0.6 22 22 W 8 13 30.04 1017 10 16 0.00 0.00
8:53 pm 20:53 Partly Cloudy 73 22.8 33 0.6 23 23 WNW 7 11 30.04 1017 10 16 0.00 0.00
9:53 pm 21:53 Partly Cloudy 70 21.1 33 0.6 26 26 NW 6 9 30.04 1017 10 16 0.00 0.00
10:53 pm 22:53 Partly Cloudy 70 21.1 33 0.6 26 26 NW 6 9 30.03 1017 10 16 0.00 0.00
11:53 pm 23:53 Partly Cloudy 72 22.2 32 0 23 23 Calm 30.04 1017 10 16 0.00 0.00

Powered by AerisWeather